Time,TemperatureF,DewpointF,PressureIn,WindDirection,WindDirectionDegrees,WindSpeedMPH,WindSpeedGustMPH,Humidity,HourlyPrecipIn,Conditions,Clouds,dailyrainin,SolarRadiationWatts/m^2,SoftwareType,DateUTC
2015-01-29 00:02:00,30.9,30.0,30.00,NW,323,1.0,-999.0,96,-99.99,,,0.00,0,weatherlink.com 1.10,2015-01-29 06:02:00,
2015-01-29 00:15:00,31.1,30.0,30.00,NW,318,3.0,-999.0,96,-99.99,,,0.00,0,weatherlink.com 1.10,2015-01-29 06:15:00,
2015-01-29 00:32:00,31.2,30.0,30.00,NW,317,3.0,-999.0,96,-99.99,,,0.00,0,weatherlink.com 1.10,2015-01-29 06:32:00,
2015-01-29 00:47:00,31.3,30.0,30.01,NW,315,1.0,-999.0,96,-99.99,,,0.00,0,weatherlink.com 1.10,2015-01-29 06:47:00,
2015-01-29 01:02:00,31.6,31.0,30.02,WNW,300,0.0,-999.0,96,-99.99,,,0.00,0,weatherlink.com 1.10,2015-01-29 07:02:00,
2015-01-29 01:17:00,32.0,31.0,30.02,WNW,290,1.0,-999.0,96,-99.99,,,0.00,0,weatherlink.com 1.10,2015-01-29 07:17:00,
2015-01-29 01:32:00,32.4,31.0,30.02,NW,304,5.0,-999.0,96,-99.99,,,0.00,0,weatherlink.com 1.10,2015-01-29 07:32:00,
2015-01-29 01:46:00,32.9,32.0,30.02,North,5,6.0,-999.0,96,-99.99,,,0.00,0,weatherlink.com 1.10,2015-01-29 07:46:00,
2015-01-29 02:02:00,33.2,32.0,30.03,North,350,8.0,-999.0,96,-99.99,,,0.00,0,weatherlink.com 1.10,2015-01-29 08:02:00,
2015-01-29 02:17:00,33.4,32.0,30.04,NW,325,4.0,-999.0,96,-99.99,,,0.00,0,weatherlink.com 1.10,2015-01-29 08:17:00,
2015-01-29 02:33:00,33.7,33.0,30.04,NW,312,8.0,-999.0,95,-99.99,,,0.00,0,weatherlink.com 1.10,2015-01-29 08:33:00,
2015-01-29 02:48:00,33.8,33.0,30.05,NNW,336,6.0,-999.0,95,-99.99,,,0.00,0,weatherlink.com 1.10,2015-01-29 08:48:00,
2015-01-29 03:03:00,33.7,32.0,30.06,NW,316,8.0,-999.0,94,-99.99,,,0.00,0,weatherlink.com 1.10,2015-01-29 09:03:00,
2015-01-29 03:18:00,33.4,32.0,30.07,NW,321,8.0,-999.0,93,-99.99,,,0.00,0,weatherlink.com 1.10,2015-01-29 09:18:00,
2015-01-29 03:33:00,32.9,31.0,30.08,NNW,334,7.0,-999.0,92,-99.99,,,0.00,0,weatherlink.com 1.10,2015-01-29 09:33:00,
2015-01-29 03:49:00,32.5,31.0,30.09,NNW,335,10.0,-999.0,92,-99.99,,,0.00,0,weatherlink.com 1.10,2015-01-29 09:49:00,
2015-01-29 04:03:00,31.6,30.0,30.10,NW,323,13.0,-999.0,92,-99.99,,,0.00,0,weatherlink.com 1.10,2015-01-29 10:03:00,
2015-01-29 04:19:00,31.4,29.0,30.10,NW,306,11.0,-999.0,92,-99.99,,,0.00,0,weatherlink.com 1.10,2015-01-29 10:19:00,
2015-01-29 04:34:00,30.6,28.0,30.11,North,355,10.0,-999.0,91,-99.99,,,0.00,0,weatherlink.com 1.10,2015-01-29 10:34:00,
2015-01-29 04:49:00,30.3,28.0,30.13,North,360,12.0,-999.0,91,-99.99,,,0.00,0,weatherlink.com 1.10,2015-01-29 10:49:00,
2015-01-29 05:04:00,30.2,28.0,30.14,North,355,8.0,-999.0,91,-99.99,,,0.00,0,weatherlink.com 1.10,2015-01-29 11:04:00,
2015-01-29 05:19:00,30.1,28.0,30.15,NW,315,7.0,-999.0,90,-99.99,,,0.00,0,weatherlink.com 1.10,2015-01-29 11:19:00,
2015-01-29 05:35:00,29.8,27.0,30.16,NW,323,11.0,-999.0,89,-99.99,,,0.00,0,weatherlink.com 1.10,2015-01-29 11:35:00,
2015-01-29 05:50:00,29.5,27.0,30.17,NNW,342,6.0,-999.0,89,-99.99,,,0.00,0,weatherlink.com 1.10,2015-01-29 11:50:00,
2015-01-29 06:20:00,28.9,26.0,30.20,NNW,328,10.0,-999.0,89,-99.99,,,0.00,0,weatherlink.com 1.10,2015-01-29 12:20:00,
2015-01-29 06:35:00,28.9,26.0,30.21,NNW,339,7.0,-999.0,88,-99.99,,,0.00,0,weatherlink.com 1.10,2015-01-29 12:35:00,
2015-01-29 06:52:00,28.7,26.0,30.22,NNW,329,10.0,-999.0,88,-99.99,,,0.00,0,weatherlink.com 1.10,2015-01-29 12:52:00,
2015-01-29 07:06:00,28.7,25.0,30.23,North,355,12.0,-999.0,87,-99.99,,,0.00,0,weatherlink.com 1.10,2015-01-29 13:06:00,
2015-01-29 07:22:00,28.7,25.0,30.24,NNW,346,8.0,-999.0,87,-99.99,,,0.00,0,weatherlink.com 1.10,2015-01-29 13:22:00,
2015-01-29 07:36:00,28.8,25.0,30.25,North,360,9.0,-999.0,86,-99.99,,,0.00,0,weatherlink.com 1.10,2015-01-29 13:36:00,
2015-01-29 07:52:00,28.8,25.0,30.26,NNW,342,5.0,-999.0,86,-99.99,,,0.00,7,weatherlink.com 1.10,2015-01-29 13:52:00,
2015-01-29 08:06:00,28.9,25.0,30.27,NNW,331,13.0,-999.0,85,-99.99,,,0.00,16,weatherlink.com 1.10,2015-01-29 14:06:00,
2015-01-29 08:21:00,29.2,25.0,30.28,NW,315,10.0,-999.0,84,-99.99,,,0.00,26,weatherlink.com 1.10,2015-01-29 14:21:00,
2015-01-29 08:37:00,28.6,25.0,30.30,NNW,333,10.0,-999.0,85,-99.99,,,0.00,51,weatherlink.com 1.10,2015-01-29 14:37:00,
2015-01-29 08:51:00,28.7,25.0,30.31,NW,322,7.0,-999.0,85,-99.99,,,0.00,44,weatherlink.com 1.10,2015-01-29 14:51:00,
2015-01-29 09:07:00,28.3,25.0,30.32,NNW,340,12.0,-999.0,86,-99.99,,,0.00,63,weatherlink.com 1.10,2015-01-29 15:07:00,
2015-01-29 09:22:00,27.8,24.0,30.32,NNW,345,11.0,-999.0,86,-99.99,,,0.00,84,weatherlink.com 1.10,2015-01-29 15:22:00,
2015-01-29 09:38:00,27.6,24.0,30.33,NW,326,9.0,-999.0,86,-99.99,,,0.00,165,weatherlink.com 1.10,2015-01-29 15:38:00,
2015-01-29 09:52:00,27.2,23.0,30.35,North,351,15.0,-999.0,84,-99.99,,,0.00,146,weatherlink.com 1.10,2015-01-29 15:52:00,
2015-01-29 10:08:00,27.0,23.0,30.36,North,350,12.0,-999.0,84,-99.99,,,0.00,179,weatherlink.com 1.10,2015-01-29 16:08:00,
2015-01-29 10:22:00,26.9,23.0,30.37,NW,321,7.0,-999.0,84,-99.99,,,0.00,229,weatherlink.com 1.10,2015-01-29 16:22:00,
2015-01-29 10:37:00,26.7,22.0,30.37,West,275,13.0,-999.0,83,-99.99,,,0.00,211,weatherlink.com 1.10,2015-01-29 16:37:00,
2015-01-29 10:53:00,27.1,23.0,30.38,NNW,327,9.0,-999.0,83,-99.99,,,0.00,425,weatherlink.com 1.10,2015-01-29 16:53:00,
2015-01-29 11:08:00,27.6,23.0,30.38,WNW,295,6.0,-999.0,83,-99.99,,,0.00,199,weatherlink.com 1.10,2015-01-29 17:08:00,
2015-01-29 11:23:00,27.4,23.0,30.38,NW,310,12.0,-999.0,82,-99.99,,,0.00,445,weatherlink.com 1.10,2015-01-29 17:23:00,
2015-01-29 11:39:00,27.2,22.0,30.39,NW,311,12.0,-999.0,82,-99.99,,,0.00,172,weatherlink.com 1.10,2015-01-29 17:39:00,
2015-01-29 11:54:00,27.0,22.0,30.39,NNW,338,9.0,-999.0,82,-99.99,,,0.00,139,weatherlink.com 1.10,2015-01-29 17:54:00,